User: anonymous   Login
Location: Lombard
(41.8800°N, 88.0080°W)
Time: 04:48:53
(UTC-05:00)
Language:

deb Explorer IX - Orbit

View from above orbital plane
View from above orbital plane
View from above satellite
View from above satellite

Ground track
Ground track

The orbit data is extracted from the following two-line orbital elements,

1    85U 61004C   24110.87787401  .00068774  00000-0  92302-2 0  9994
2    85  38.7513 321.6565 0275340 264.4846  92.4451 14.55498453131845
Epoch (UTC): 19 April 2024 21:04:08
Eccentricity: 0.0275340
inclination: 38.7513°
perigee height: 512 km
apogee height: 903 km
right ascension of ascending node: 321.6565°
argument of perigee: 264.4846°
revolutions per day: 14.55498453
mean anomaly at epoch: 92.4451°
orbit number at epoch: 13184

The dashed part of the orbit path shows where the satellite is in the earth's shadow,  

DLR